Liberal, Kansas, United States (67901)
Lat: 37.04N, Lon: 100.92W
Wx Zone: KSZ086
Local Info
Past Weather Observations for Saturday, May 21, 2016

NOTE: This archive is for the closest National Weather Service station to Liberal. Information may differ from the station used for current weather conditions.

Click here for Long-term Archive

Time Weather Temperature Dewpoint Humidity Pressure Winds Precip Visibility
23:55
Overcast
72°F / 22°C 64°F / 18°C 78% 29.98 in
(1015 mb)
SSE 15 mph
(SSE 24 kph)
- 10SM
23:35
Overcast
72°F / 22°C 64°F / 18°C 78% 29.98 in
(1015 mb)
SSE 19.6 mph
(SSE 32 kph)
- 10SM
23:15
Overcast
72°F / 22°C 64°F / 18°C 78% 29.98 in
(1015 mb)
SSE 19.6 mph
(SSE 32 kph)
- 10SM
22:55
Overcast
72°F / 22°C 64°F / 18°C 78% 29.98 in
(1015 mb)
SSE 17.3 mph
(SSE 28 kph)
- 10SM
22:35
Overcast
72°F / 22°C 63°F / 17°C 73% 29.98 in
(1015 mb)
SSE 18.4 mph
(SSE 30 kph)
- 10SM
22:15
Mostly Cloudy
70°F / 21°C 63°F / 17°C 78% 29.98 in
(1015 mb)
SSE 18.4 mph
(SSE 30 kph)
- 10SM
21:55
Partly Cloudy
72°F / 22°C 63°F / 17°C 73% 29.98 in
(1015 mb)
SSE 17.3 mph
(SSE 28 kph)
- 10SM
21:35
Clear
72°F / 22°C 61°F / 16°C 69% 29.98 in
(1015 mb)
SE 17.3 mph
(SE 28 kph)
- 10SM
21:15
Clear
72°F / 22°C 61°F / 16°C 69% 29.98 in
(1015 mb)
SE 15 mph
(SE 24 kph)
- 10SM
20:55
Clear
73°F / 23°C 61°F / 16°C 65% 29.95 in
(1014 mb)
SSE 13.8 mph
(SSE 22 kph)
- 10SM
20:35
Clear
73°F / 23°C 61°F / 16°C 65% 29.92 in
(1013 mb)
SSE 17.3 mph
(SSE 28 kph)
- 10SM
20:15
Clear
75°F / 24°C 61°F / 16°C 61% 29.92 in
(1013 mb)
SSE 16.1 mph
(SSE 26 kph)
- 10SM
19:55
Clear
75°F / 24°C 61°F / 16°C 61% 29.92 in
(1013 mb)
SSE 16.1 mph
(SSE 26 kph)
- 10SM
19:35
Clear
79°F / 26°C 61°F / 16°C 54% 29.92 in
(1013 mb)
SSE 16.1 mph
(SSE 26 kph)
- 10SM
19:15
Clear
79°F / 26°C 61°F / 16°C 54% 29.92 in
(1013 mb)
SSE 17.3 mph
(SSE 28 kph)
- 10SM
18:55
Clear
81°F / 27°C 61°F / 16°C 51% 29.89 in
(1012 mb)
SSE 24.2 mph
(SSE 39 kph)
- 10SM
18:35
Clear
82°F / 28°C 57°F / 14°C 42% 29.89 in
(1012 mb)
S 25.3 mph
(S 41 kph)
- 10SM
18:15
Clear
82°F / 28°C 57°F / 14°C 42% 29.92 in
(1013 mb)
S 25.3 mph
(S 41 kph)
- 10SM
17:55
Clear
84°F / 29°C 57°F / 14°C 40% 29.92 in
(1013 mb)
S 25.3 mph
(S 41 kph)
- 10SM
17:35
Clear
84°F / 29°C 57°F / 14°C 40% 29.92 in
(1013 mb)
S 25.3 mph
(S 41 kph)
- 10SM
17:15
Clear
84°F / 29°C 57°F / 14°C 40% 29.92 in
(1013 mb)
S 25.3 mph
(S 41 kph)
- 10SM
16:55
Clear
86°F / 30°C 59°F / 15°C 40% 29.92 in
(1013 mb)
S 25.3 mph
(S 41 kph)
- 10SM
16:35
Clear
88°F / 31°C 61°F / 16°C 40% 29.92 in
(1013 mb)
S 24.2 mph
(S 39 kph)
- 10SM
16:15
Partly Cloudy
88°F / 31°C 59°F / 15°C 38% 29.92 in
(1013 mb)
S 24.2 mph
(S 39 kph)
- 10SM
15:55
Partly Cloudy
88°F / 31°C 59°F / 15°C 38% 29.92 in
(1013 mb)
S 26.5 mph
(S 43 kph)
- 10SM
15:35
Clear
88°F / 31°C 61°F / 16°C 40% 29.92 in
(1013 mb)
S 23 mph
(S 37 kph)
- 10SM
15:15
Partly Cloudy
88°F / 31°C 61°F / 16°C 40% 29.92 in
(1013 mb)
S 24.2 mph
(S 39 kph)
- 10SM
14:55
Partly Cloudy
88°F / 31°C 63°F / 17°C 43% 29.95 in
(1014 mb)
S 23 mph
(S 37 kph)
- 10SM
14:35
Partly Cloudy
88°F / 31°C 63°F / 17°C 43% 29.95 in
(1014 mb)
S 21.9 mph
(S 35 kph)
- 10SM
14:15
Clear
88°F / 31°C 63°F / 17°C 43% 29.95 in
(1014 mb)
S 19.6 mph
(S 32 kph)
- 10SM
13:55
Clear
86°F / 30°C 63°F / 17°C 46% 29.95 in
(1014 mb)
S 24.2 mph
(S 39 kph)
- 10SM
13:35
Clear
84°F / 29°C 63°F / 17°C 48% 29.98 in
(1015 mb)
S 24.2 mph
(S 39 kph)
- 10SM
13:15
Clear
84°F / 29°C 63°F / 17°C 48% 29.98 in
(1015 mb)
S 18.4 mph
(S 30 kph)
- 10SM
12:55
Clear
82°F / 28°C 63°F / 17°C 51% 29.98 in
(1015 mb)
SSE 19.6 mph
(SSE 32 kph)
- 10SM
12:35
Clear
81°F / 27°C 64°F / 18°C 58% 29.98 in
(1015 mb)
S 17.3 mph
(S 28 kph)
- 10SM
12:15
Clear
81°F / 27°C 64°F / 18°C 58% 30.01 in
(1016 mb)
S 17.3 mph
(S 28 kph)
- 10SM
11:55
Clear
81°F / 27°C 64°F / 18°C 58% 30.01 in
(1016 mb)
S 19.6 mph
(S 32 kph)
- 10SM
11:35
Clear
79°F / 26°C 64°F / 18°C 61% 30.01 in
(1016 mb)
SSE 13.8 mph
(SSE 22 kph)
- 10SM
11:15
Partly Cloudy
79°F / 26°C 64°F / 18°C 61% 30.01 in
(1016 mb)
S 18.4 mph
(S 30 kph)
- 10SM
10:55
Partly Cloudy
79°F / 26°C 64°F / 18°C 61% 30.01 in
(1016 mb)
S 19.6 mph
(S 32 kph)
- 10SM
10:35
Partly Cloudy
75°F / 24°C 64°F / 18°C 69% 30.01 in
(1016 mb)
S 19.6 mph
(S 32 kph)
- 10SM
10:15
Partly Cloudy
75°F / 24°C 64°F / 18°C 69% 30.01 in
(1016 mb)
S 19.6 mph
(S 32 kph)
- 10SM
09:55
Mostly Cloudy
75°F / 24°C 64°F / 18°C 69% 30.01 in
(1016 mb)
S 18.4 mph
(S 30 kph)
- 10SM
09:35
Mostly Cloudy
73°F / 23°C 64°F / 18°C 74% 30.04 in
(1017 mb)
S 19.6 mph
(S 32 kph)
- 10SM
09:15
Overcast
72°F / 22°C 63°F / 17°C 73% 30.04 in
(1017 mb)
S 17.3 mph
(S 28 kph)
- 10SM
08:55
Overcast
72°F / 22°C 63°F / 17°C 73% 30.04 in
(1017 mb)
S 18.4 mph
(S 30 kph)
- 10SM
08:35
Overcast
70°F / 21°C 63°F / 17°C 78% 30.04 in
(1017 mb)
S 16.1 mph
(S 26 kph)
- 10SM
08:15
Overcast
68°F / 20°C 61°F / 16°C 78% 30.04 in
(1017 mb)
S 13.8 mph
(S 22 kph)
- 10SM
07:55
Overcast
66°F / 19°C 61°F / 16°C 83% 30.04 in
(1017 mb)
S 17.3 mph
(S 28 kph)
- 10SM
07:35
Overcast
66°F / 19°C 61°F / 16°C 83% 30.04 in
(1017 mb)
S 13.8 mph
(S 22 kph)
- 10SM
07:15
Overcast
64°F / 18°C 61°F / 16°C 88% 30.01 in
(1016 mb)
SSE 15 mph
(SSE 24 kph)
- 10SM
06:55
Overcast
64°F / 18°C 59°F / 15°C 83% 30.01 in
(1016 mb)
SSE 15 mph
(SSE 24 kph)
- 10SM
06:35
Overcast
64°F / 18°C 59°F / 15°C 83% 30.01 in
(1016 mb)
SSE 13.8 mph
(SSE 22 kph)
- 10SM
06:15
Overcast
64°F / 18°C 57°F / 14°C 78% 30.01 in
(1016 mb)
SSE 12.7 mph
(SSE 20 kph)
- 10SM
05:55
Overcast
63°F / 17°C 57°F / 14°C 83% 30.01 in
(1016 mb)
SSE 12.7 mph
(SSE 20 kph)
- 10SM
05:35
Overcast
63°F / 17°C 57°F / 14°C 83% 30.01 in
(1016 mb)
SSE 12.7 mph
(SSE 20 kph)
- 10SM
05:15
Overcast
63°F / 17°C 57°F / 14°C 83% 30.01 in
(1016 mb)
SSE 12.7 mph
(SSE 20 kph)
- 10SM
04:55
Overcast
63°F / 17°C 57°F / 14°C 83% 30.01 in
(1016 mb)
SE 12.7 mph
(SE 20 kph)
- 10SM
04:35
Overcast
63°F / 17°C 57°F / 14°C 83% 30.01 in
(1016 mb)
SE 16.1 mph
(SE 26 kph)
- 10SM
04:15
Overcast
63°F / 17°C 57°F / 14°C 83% 30.01 in
(1016 mb)
SE 18.4 mph
(SE 30 kph)
- 10SM
03:55
Overcast
63°F / 17°C 57°F / 14°C 83% 30.01 in
(1016 mb)
SSE 17.3 mph
(SSE 28 kph)
- 10SM
03:35
Overcast
63°F / 17°C 57°F / 14°C 83% 30.01 in
(1016 mb)
SSE 18.4 mph
(SSE 30 kph)
- 10SM
03:15
Overcast
63°F / 17°C 57°F / 14°C 83% 30.01 in
(1016 mb)
SSE 15 mph
(SSE 24 kph)
- 10SM
02:55
Overcast
63°F / 17°C 57°F / 14°C 83% 30.01 in
(1016 mb)
SSE 15 mph
(SSE 24 kph)
- 10SM
02:35
Overcast
63°F / 17°C 57°F / 14°C 83% 30.01 in
(1016 mb)
SSE 15 mph
(SSE 24 kph)
- 10SM
02:15
Overcast
63°F / 17°C 57°F / 14°C 83% 30.01 in
(1016 mb)
SSE 17.3 mph
(SSE 28 kph)
- 10SM
01:55
Overcast
63°F / 17°C 55°F / 13°C 77% 30.01 in
(1016 mb)
SSE 18.4 mph
(SSE 30 kph)
- 10SM
01:35
Overcast
61°F / 16°C 55°F / 13°C 83% 30.01 in
(1016 mb)
SE 17.3 mph
(SE 28 kph)
- 10SM
01:15
Overcast
61°F / 16°C 55°F / 13°C 83% 30.01 in
(1016 mb)
SE 15 mph
(SE 24 kph)
- 10SM
00:55
Overcast
61°F / 16°C 55°F / 13°C 83% 30.01 in
(1016 mb)
SE 15 mph
(SE 24 kph)
- 10SM
00:35
Mostly Cloudy
61°F / 16°C 54°F / 12°C 77% 30.01 in
(1016 mb)
SE 15 mph
(SE 24 kph)
- 10SM
00:15
Partly Cloudy
61°F / 16°C 54°F / 12°C 77% 30.01 in
(1016 mb)
SE 16.1 mph
(SE 26 kph)
- 10SM
Time Weather Temperature Dewpoint Humidity Pressure Winds Precip Visibility


Weather for websites

WeatherForYou.com, LLC is not responsible for any damages or problems caused by this service. Current weather conditions are obtained from the closest station including government and personal stations which may have varying degrees of accuracy. Weather forecasts are derived from the NOAA NDFD. Like all things, this site belongs to Jesus Christ... He just trusts us to maintain it. If you have any questions or comments email webmaster@weatherforyou.com

Copyright © 2016, WeatherForYou.com LLC. All rights reserved.